Location: Newark
(42.7133°N, 87.7910°W)
Time: 11:49:20
(UTC+00:00)

Tiros 1 - Pass Details

Date: 23 October 2019
Orbit: 630 x 664 km, 48.4° (Epoch: 21 November)

Event Time Altitude Azimuth Distance (km) Brightness Sun altitude
Exits shadow 09:36:58 39° 31° (NNE) 996 8.3 -29.3°
Drops below altitude 10° 09:40:45 10° 76° (ENE) 2,083 10.7 -28.7°
Sets 09:43:12 0° 84° (E) 2,994 11.8 -28.2°
